Simultaneous Nadir Overpasses (SNOs) Predictions

Prediction of SNOs between AQUA and METOP-A Satellite Orbit:

Table of predicted SNOs for the next 14.0 days since TLE Epoch: 1/6/2012
Index Date Time (AQUA) AQUA Lat,Lon METOP-A Lat,Lon Distance(km) Time Diff (sec)
1 01/07/2012 06:57:06 -72.25,-107.17 -72.23,-113.22 205.22 53
2 01/07/2012 07:47:03 73.80, 57.38 73.80, 57.48 3.29 41
3 01/07/2012 08:36:29 -73.82,-135.03 -73.82,-135.13 2.86 34
4 01/07/2012 09:26:21 75.08, 29.57 75.05, 35.43 167.90 57
5 01/10/2012 02:31:31 -72.74, -41.64 -72.72, -45.85 139.00 61
6 01/10/2012 03:21:18 73.76, 123.90 73.77, 123.82 2.93 29
7 01/10/2012 04:10:45 -73.83, -68.62 -73.85, -68.66 2.67 44
8 01/10/2012 05:00:46 75.54, 94.73 75.50, 103.17 234.60 49
9 01/12/2012 22:05:55 -73.20, 23.88 -73.16, 21.48 77.51 67
10 01/12/2012 22:55:34 73.81,-169.76 73.80,-169.72 1.76 19
11 01/12/2012 23:45:01 -73.88, -2.28 -73.89, -2.18 3.01 54
12 01/13/2012 00:35:13 76.13, 159.41 76.09, 171.48 321.99 36
13 01/15/2012 17:40:18 -73.70, 89.27 -73.64, 88.97 11.71 74
14 01/15/2012 18:29:47 73.79,-103.28 73.78,-103.36 2.73 6
15 01/15/2012 19:19:14 -73.86, 64.22 -73.87, 64.18 2.05 67
16 01/15/2012 20:09:45 77.02,-137.21 76.92,-118.99 455.08 11
17 01/18/2012 12:24:02 70.27, -5.84 70.29, -18.34 468.41 8
18 01/18/2012 13:14:32 -73.72, 155.69 -73.73, 155.58 3.58 63
19 01/18/2012 14:04:01 73.81, -36.87 73.82, -36.88 1.02 6




NCC Satellite Simultaneous Nadir Overpasses (SNOs) Prediction Service
